Effingham, IL

8:44 PM CST on December 08, 2019 (GMT -0600)
Effingham

Weather History for K1H2 - November, 2019

Change the Weather History Date:

Tuesday, November 12, 2019

  Actual Average (WUND) Record (WUND)
Temperature  
Mean Temperature 10 °F -  
Max Temperature 18 °F - - (-1)
Min Temperature 3 °F - - (-1)
Degree Days  
Heating Degree Days 54    
Moisture  
Dew Point -4 °F    
Average Humidity 49    
Maximum Humidity 70    
Minimum Humidity 30    
Precipitation  
Precipitation 0.00 in - - ()
Sea Level Pressure  
Sea Level Pressure 30.53 in    
Wind  
Wind Speed 9 mph ()    
Max Wind Speed 18 mph    
Max Gust Speed 23 mph    
Visibility 10.0 miles    
Events      
Averages and records for this station are not official NWS values.
T = Trace of Precipitation, MM = Missing Value Source: Averaged Metar Reports

Daily Weather History Graph

Daily Weather History Graph

Search for Another Location

Airport or City:

Astronomy

Nov. 12, 2019 Rise Set
Actual Time 6:33 AM CST 4:42 PM CST
Civil Twilight 6:05 AM CST 5:10 PM CST
Nautical Twilight 5:33 AM CST 5:42 PM CST
Astronomical Twilight 5:01 AM CST 6:14 PM CST
Moon 5:09 PM CST (11/12) 6:25 AM CST (11/12)
Length of Visible Light 11h 05m
Length of Day
10h 08m
Full, 100% of the Moon is Illuminated
Nov 12
Full
Nov 19
Last Quarter
Nov 26
New
Dec 4
First Quarter
Dec 11
Full

Hourly Weather History & Observations

Time (CST) Temp. Windchill Dew Point Humidity Pressure Visibility Wind Dir Wind Speed Gust Speed Precip Events Conditions
12:15 AM 15.8 °F 2.1 °F 0.1 °F 50% 30.48 in 10.0 mi WNW 12.7 mph - N/A   Clear
12:35 AM 15.4 °F -0.1 °F -0.4 °F 50% 30.48 in 10.0 mi WNW 16.1 mph 20.7 mph N/A   Clear
12:55 AM 14.9 °F -1.8 °F -0.9 °F 50% 30.48 in 10.0 mi WNW 18.4 mph 21.9 mph N/A   Clear
1:15 AM 14.5 °F -0.7 °F -1.5 °F 49% 30.48 in 10.0 mi WNW 15.0 mph 23.0 mph N/A   Clear
1:35 AM 14.0 °F -2.5 °F -2.2 °F 49% 30.49 in 10.0 mi WNW 17.3 mph - N/A   Clear
1:55 AM 13.6 °F -0.7 °F -2.4 °F 49% 30.49 in 10.0 mi WNW 12.7 mph - N/A   Clear
2:15 AM 13.6 °F -1.9 °F -3.1 °F 47% 30.49 in 10.0 mi WNW 15.0 mph - N/A   Clear
2:35 AM 12.9 °F -2.2 °F -3.1 °F 49% 30.49 in 10.0 mi WNW 13.8 mph - N/A   Clear
2:55 AM 12.6 °F -3.3 °F -3.3 °F 49% 30.50 in 10.0 mi WNW 15.0 mph - N/A   Clear
3:15 AM 12.2 °F -3.1 °F -3.6 °F 49% 30.50 in 10.0 mi WNW 13.8 mph 19.6 mph N/A   Clear
3:35 AM 12.0 °F -3.4 °F -4.0 °F 49% 30.51 in 10.0 mi WNW 13.8 mph - N/A   Clear
3:55 AM 11.3 °F -3.6 °F -4.0 °F 50% 30.51 in 10.0 mi WNW 12.7 mph 17.3 mph N/A   Clear
4:15 AM 11.3 °F -2.9 °F -4.0 °F 50% 30.52 in 10.0 mi WNW 11.5 mph - N/A   Clear
4:35 AM 11.1 °F -4.5 °F -4.2 °F 50% 30.52 in 10.0 mi WNW 13.8 mph 18.4 mph N/A   Clear
4:55 AM 10.8 °F -3.6 °F -4.4 °F 51% 30.52 in 10.0 mi WNW 11.5 mph - N/A   Clear
5:15 AM 10.4 °F -4.1 °F -4.4 °F 51% 30.52 in 10.0 mi WNW 11.5 mph - N/A   Clear
5:35 AM 10.0 °F -3.7 °F -4.5 °F 52% 30.53 in 10.0 mi WNW 10.4 mph - N/A   Clear
5:55 AM 9.3 °F -3.8 °F -5.1 °F 52% 30.54 in 10.0 mi WNW 9.2 mph - N/A   Clear
6:15 AM 9.1 °F -4.0 °F -5.1 °F 53% 30.54 in 10.0 mi WNW 9.2 mph - N/A   Clear
6:35 AM 9.1 °F -4.9 °F -4.9 °F 53% 30.55 in 10.0 mi WNW 10.4 mph - N/A   Clear
6:55 AM 8.8 °F -4.4 °F -5.1 °F 53% 30.56 in 10.0 mi WNW 9.2 mph - N/A   Clear
7:15 AM 9.5 °F -4.4 °F -5.1 °F 52% 30.56 in 10.0 mi WNW 10.4 mph - N/A   Clear
7:35 AM 10.0 °F -5.2 °F -5.1 °F 51% 30.57 in 10.0 mi WNW 12.7 mph - N/A   Clear
7:55 AM 10.6 °F -4.5 °F -5.1 °F 49% 30.58 in 10.0 mi WNW 12.7 mph - N/A   Clear
8:15 AM 11.1 °F -3.9 °F -5.1 °F 48% 30.59 in 10.0 mi WNW 12.7 mph - N/A   Clear
8:35 AM 12.0 °F 0.5 °F -4.7 °F 47% 30.59 in 10.0 mi NW 8.1 mph - N/A   Clear
8:55 AM 12.7 °F 0.4 °F -5.6 °F 44% 30.59 in 10.0 mi NW 9.2 mph - N/A   Clear
9:15 AM 13.1 °F -2.0 °F -5.8 °F 43% 30.60 in 10.0 mi WNW 13.8 mph - N/A   Clear
9:35 AM 13.8 °F 0.2 °F -5.8 °F 42% 30.60 in 10.0 mi NW 11.5 mph - N/A   Clear
10:15 AM 14.9 °F 2.3 °F -6.2 °F 39% 30.59 in 10.0 mi NW 10.4 mph - N/A   Clear
10:35 AM 15.4 °F 4.6 °F -6.3 °F 38% 30.59 in 10.0 mi NW 8.1 mph - N/A   Clear
10:55 AM 16.0 °F 5.3 °F -5.8 °F 38% 30.59 in 10.0 mi West 8.1 mph - N/A   Clear
11:35 AM 16.3 °F 4.9 °F -4.5 °F 40% 30.59 in 10.0 mi WNW 9.2 mph - N/A   Clear
11:55 AM 16.7 °F 5.3 °F -5.3 °F 38% 30.58 in 10.0 mi WNW 9.2 mph - N/A   Clear
12:15 PM 16.7 °F 6.2 °F -6.3 °F 36% 30.57 in 10.0 mi WNW 8.1 mph - N/A   Clear
12:35 PM 17.2 °F 4.5 °F -6.0 °F 36% 30.56 in 10.0 mi WNW 11.5 mph - N/A   Clear
12:55 PM 17.4 °F 4.7 °F -7.6 °F 33% 30.56 in 10.0 mi West 11.5 mph - N/A   Clear
1:15 PM 17.6 °F 6.4 °F -7.2 °F 33% 30.55 in 10.0 mi WNW 9.2 mph - N/A   Clear
1:35 PM 17.6 °F 7.3 °F -9.0 °F 30% 30.55 in 10.0 mi NW 8.1 mph - N/A   Clear
1:55 PM 18.0 °F 6.1 °F -8.5 °F 31% 30.55 in 10.0 mi WNW 10.4 mph - N/A   Clear
2:15 PM 18.0 °F 6.9 °F -8.5 °F 31% 30.55 in 10.0 mi WNW 9.2 mph - N/A   Clear
2:35 PM 18.0 °F 7.7 °F -7.4 °F 32% 30.54 in 10.0 mi WNW 8.1 mph - N/A   Clear
2:55 PM 17.6 °F 7.3 °F -8.1 °F 32% 30.54 in 10.0 mi WNW 8.1 mph - N/A   Clear
3:15 PM 17.6 °F 7.3 °F -6.5 °F 34% 30.54 in 10.0 mi WNW 8.1 mph - N/A   Clear
3:35 PM 17.4 °F 6.2 °F -6.7 °F 34% 30.54 in 10.0 mi WNW 9.2 mph - N/A   Clear
3:55 PM 16.9 °F 7.4 °F -6.2 °F 36% 30.54 in 10.0 mi WNW 6.9 mph - N/A   Clear
4:15 PM 16.2 °F 9.0 °F -6.5 °F 36% 30.54 in 10.0 mi NW 4.6 mph - N/A   Clear
4:35 PM 15.1 °F 5.2 °F -6.0 °F 39% 30.54 in 10.0 mi NW 6.9 mph - N/A   Clear
4:55 PM 14.5 °F 8.8 °F -6.5 °F 39% 30.54 in 10.0 mi NNW 3.5 mph - N/A   Clear
5:15 PM 13.3 °F - -6.2 °F 42% 30.54 in 10.0 mi Calm Calm - N/A   Clear
5:35 PM 12.6 °F - -5.6 °F 44% 30.54 in 10.0 mi Calm Calm - N/A   Clear
5:55 PM 11.1 °F - -3.3 °F 52% 30.54 in 10.0 mi Calm Calm - N/A   Clear
6:15 PM 10.8 °F - -0.9 °F 59% 30.54 in 10.0 mi Calm Calm - N/A   Clear
6:35 PM 9.5 °F - -0.9 °F 63% 30.54 in 10.0 mi Calm Calm - N/A   Clear
6:55 PM 8.4 °F - -1.3 °F 65% 30.53 in 10.0 mi Calm Calm - N/A   Clear
7:15 PM 8.1 °F - -2.0 °F 64% 30.51 in 10.0 mi Calm Calm - N/A   Clear
7:35 PM 7.7 °F - -3.1 °F 61% 30.51 in 10.0 mi Calm Calm - N/A   Clear
7:55 PM 7.2 °F - -2.0 °F 66% 30.51 in 10.0 mi Calm Calm - N/A   Clear
8:15 PM 7.3 °F - -2.2 °F 65% 30.50 in 10.0 mi Calm Calm - N/A   Clear
8:35 PM 5.9 °F - -2.7 °F 68% 30.50 in 10.0 mi Calm Calm - N/A   Clear
8:55 PM 6.4 °F - -1.5 °F 70% 30.50 in 10.0 mi Calm Calm - N/A   Clear
9:15 PM 6.3 °F - -2.2 °F 68% 30.50 in 10.0 mi Calm Calm - N/A   Clear
9:35 PM 5.9 °F - -2.0 °F 70% 30.50 in 10.0 mi Calm Calm - N/A   Clear
10:15 PM 5.4 °F - -3.1 °F 68% 30.48 in 10.0 mi Calm Calm - N/A   Clear
10:35 PM 4.3 °F - -4.0 °F 69% 30.48 in 10.0 mi Calm Calm - N/A   Clear
10:55 PM 4.5 °F - -4.0 °F 68% 30.47 in 10.0 mi Calm Calm - N/A   Clear
11:15 PM 3.9 °F - -4.9 °F 67% 30.46 in 10.0 mi Calm Calm - N/A   Clear
11:35 PM 5.4 °F - -3.1 °F 68% 30.46 in 10.0 mi Calm Calm - N/A   Clear
11:55 PM 4.1 °F - -4.4 °F 68% 30.46 in 10.0 mi Calm Calm - N/A   Clear